COSMOS 886 DEB, 9721

Orbit data source: Space-Track

COSMOS 886 DEB, 9721 is space debris in LEO originally from a launch on Mon, 27 Dec 1976 UTC launched from the Tyuratam Missile And Space Complex (TTMTR). Debris objects in space refer to the collection of defunct objects orbiting the Earth. Examples of debris include non-operational satellites, rocket bodies, and fragments generated from explosions, collisions, or faulty payload assembly.

Loading next visibility...
Identifier
9721, 1976-126S
Orbit
LEO
Country
Flag of CISCIS
Related business
Manufacturer
Unknown
Mission
Spacecraft
Bus & Motor
Unknown
Mass
Unknown
Launch date (UTC)
1976-12-27 (49 years ago)
Launch vehicle
Unknown
Launch site
Tyuratam Missile And Space Complex (TTMTR)
Object type
Payload
Rocket body
Debris
Shape & HBR
Unknown shape, 0.2 m
Radar Cross Section
Small (<0.1 m²)

Expand to show TLE details & history
Last TLE update: 11 hours ago

TLE from 11 hours ago
0 COSMOS 886 DEB
1  9721U 76126S   26130.21637914  .00000123  00000-0  75794-4 0  9998
2  9721  65.8408 165.5054 1059104  27.1432 338.1098 12.77387161291510
Epoch: 2026-05-10T05:11Z
TLE epoch observation values (Epoch: 2026-05-10T05:11:35.157Z)
Latitude
-0.00003°
Longitude
-140.41374°
Altitude
608.202 km
Speed
7.911 km/s
True Right ascension
11h 02m 01s
True Declination
0° 00' 00"
Sunlit
Object was in full shadow at epoch
Visualization orbit readout
Latitude
Unknown
Longitude
Unknown
Altitude
Unknown
Speed
Unknown
Apparent Right ascension
Unknown
Apparent Declination
Unknown
Sunlit
N/A
Visualization observer readout
Local Sidereal Time
00:11:11
Azimuth
Unknown
Elevation
Unknown
Doppler factor
Unknown
Orbital elements
Apogee altitude
2,169.106 km
Perigee altitude
532.008 km
Semi-major axis
7,728.694 km
Eccentricity
0.10591
Inclination
65.8408°
RAAN
165.5054°
Arg. of periapsis
27.1432°
True anomaly
332.96248°
Mean anomaly
338.1098°
Eccentric anomaly
335.60331°
Mean motion
3.19436 °/min
Orbital period
112.7 mins
BSTAR
0.000075794
Loading maneuver chart data...
Computing Atmospheric mass density...
Loading historical data...
Loading historical data...
Loading historical data...
Loading historical data...
Loading historical data...
Loading historical data...
Loading historical data...

Documentation

Showing up to 5 results
|